Location: Berg
(48.5667°N, 13.9833°E)
Time: 03:44:58
(UTC+00:00)

SL-08 RB Rocket - Pass Details

Date: 09 April 2020
Orbit: 646 x 685 km, 97.8° (Epoch: 06 June)

Event Time Altitude Azimuth Distance (km) Brightness Sun altitude
Exits shadow 18:56:15 - 169° (SSE) 2,785 6.5 -11.6°
Reaches altitude 10° 18:57:58 10° 170° (S) 2,084 5.9 -11.8°
Maximum altitude 19:02:32 78° 256° (WSW) 692 3.9 -12.5°
Drops below altitude 10° 19:07:11 10° 344° (NNW) 2,125 7.0 -13.2°
Sets 19:09:27 0° 346° (NNW) 3,050 7.8 -13.5°
